Estación meteorológica de Els Cortals - St. Hilari Sacalm (La Selva, Guilleries)

Consulta los datos en tiempo real de la estación meteorológica de Els Cortals - St. Hilari Sacalm





Hora UTC 20:45
Temperatura 9.6 ºC
Humedad 67.0 %
Presión 1009.4 hPa
Pluja 0.5 mm
Velocidad viento 0.0 km/h
Dirección viento E

Datos diarios 2026-05-03



Hora UTC (invierno +1h; verano +2h)
Temperatura (ºC) Humedad (%) Presión (hPa) Velocidad viento (km/h) Precipitación (mm)
Hora UTC Aire Humedad Presión Vel. Dir. Vel. Max Dir. Intent. máx 5 min.
00:05 10.0 82.0 1012.8 1.6 S 1.6 0.0
00:10 10.1 82.0 1012.7 0.0 SSW 8.0 0.0
00:15 10.2 81.0 1012.5 8.0 SW 8.0 0.0
00:20 10.3 81.0 1012.4 0.0 WSW 8.0 0.0
00:25 10.3 81.0 1012.4 1.6 WSW 4.8 0.0
00:30 10.4 81.0 1012.5 3.2 SW 6.4 0.0
00:35 10.4 81.0 1012.4 1.6 WSW 9.7 0.0
00:40 10.5 81.0 1012.3 3.2 WSW 9.7 0.0
00:45 10.5 82.0 1012.3 3.2 S 6.4 0.0
00:50 10.5 82.0 1012.1 3.2 SSE 9.7 0.0
00:55 10.4 82.0 1012.1 1.6 ESE 9.7 0.0
01:00 10.4 83.0 1012.0 0.0 ESE 6.4 0.0
01:05 10.3 83.0 1011.8 0.0 ESE 3.2 0.0
01:10 10.3 83.0 1011.6 1.6 SE 1.6 0.0
01:15 10.3 83.0 1011.7 0.0 SE 3.2 0.0
01:20 10.3 83.0 1011.7 1.6 SW 11.3 0.0
01:25 10.3 83.0 1011.7 1.6 SW 11.3 0.0
01:30 10.3 83.0 1011.7 8.0 W 12.9 0.0
01:35 10.2 79.0 1011.5 3.2 SSW 16.1 0.0
01:40 10.5 72.0 1011.7 8.0 SSW 16.1 0.0
01:45 10.8 78.0 1011.5 0.0 SW 14.5 0.0
01:50 10.8 79.0 1011.4 1.6 SSW 8.0 0.0
01:55 10.7 79.0 1011.4 1.6 SSW 9.7 0.0
02:00 10.6 78.0 1011.3 0.0 SE 9.7 0.0
02:05 10.6 80.0 1011.3 0.0 SE 6.4 0.0
02:10 10.5 81.0 1011.2 1.6 SE 6.4 0.0
02:15 10.3 80.0 1011.2 0.0 SE 6.4 0.0
02:20 10.2 82.0 1011.2 0.0 SE 1.6 0.0
02:25 10.1 82.0 1011.2 0.0 SE 1.6 0.0
02:30 10.0 83.0 1011.1 0.0 SE 0.0 0.0
02:35 9.9 83.0 1011.2 0.0 SE 0.0 0.0
02:40 9.8 83.0 1011.2 0.0 SE 0.0 0.0
02:45 9.7 83.0 1011.1 6.4 SSE 6.4 0.0
02:50 9.6 80.0 1011.1 6.4 SSW 9.7 0.0
02:55 9.6 75.0 1010.9 1.6 SW 8.0 0.0
03:00 9.8 73.0 1010.9 3.2 SW 8.0 0.0
03:05 9.9 72.0 1010.9 0.0 SSW 9.7 0.0
03:10 10.0 71.0 1010.9 3.2 SW 9.7 0.0
03:15 10.1 71.0 1010.9 3.2 SW 8.0 0.0
03:20 10.1 70.0 1011.0 8.0 SW 8.0 0.0
03:25 10.1 71.0 1010.9 3.2 WSW 9.7 0.0
03:30 10.0 72.0 1010.7 1.6 W 9.7 0.0
03:35 10.0 74.0 1010.8 6.4 W 8.0 0.0
03:40 10.1 79.0 1010.8 3.2 WSW 8.0 0.0
03:45 10.0 82.0 1010.8 3.2 WSW 8.0 0.0
03:50 9.9 83.0 1010.7 3.2 WSW 6.4 0.0
03:55 9.9 83.0 1010.6 1.6 WSW 8.0 0.0
04:00 9.8 83.0 1010.7 6.4 W 12.9 0.0
04:05 9.8 82.0 1010.8 8.0 WSW 12.9 0.0
04:10 9.8 81.0 1010.7 9.7 W 12.9 0.0
04:15 9.7 81.0 1010.6 6.4 WSW 12.9 0.0
04:20 9.7 80.0 1010.6 8.0 WSW 12.9 0.0
04:25 9.6 80.0 1010.6 11.3 W 12.9 0.0
04:30 9.6 80.0 1010.6 6.4 WSW 12.9 0.0
04:35 9.5 81.0 1010.5 4.8 W 12.9 0.0
04:40 9.4 81.0 1010.5 6.4 WSW 11.3 0.0
04:45 9.3 82.0 1010.4 8.0 WSW 11.3 0.0
04:50 9.2 82.0 1010.4 6.4 WSW 9.7 0.0
04:55 9.1 83.0 1010.4 0.0 WSW 9.7 0.0
05:00 9.1 83.0 1010.4 0.0 NNE 6.4 0.0
05:05 9.0 86.0 1010.6 0.0 NNE 1.6 0.0
05:10 8.9 83.0 1010.8 0.0 NNE 1.6 0.0
05:15 8.8 83.0 1010.8 0.0 NNE 1.6 0.0
05:20 8.8 83.0 1010.9 0.0 NNE 0.0 0.0
05:25 8.7 83.0 1010.8 0.0 NNE 0.0 0.0
05:30 8.7 82.0 1010.8 0.0 NNE 0.0 0.0
05:35 8.7 82.0 1010.9 0.0 NNE 0.0 0.0
05:40 8.8 81.0 1010.8 0.0 NNE 0.0 0.0
05:45 8.8 81.0 1010.8 0.0 NNE 0.0 0.0
05:50 8.8 82.0 1010.7 0.0 NNE 0.0 0.0
05:55 8.8 83.0 1010.7 0.0 NNE 0.0 0.0
06:00 9.1 83.0 1010.9 0.0 NNE 0.0 0.0
06:05 9.4 83.0 1011.0 0.0 NE 0.0 0.0
06:10 9.6 83.0 1011.0 0.0 NE 0.0 0.0
06:15 9.8 83.0 1010.8 0.0 ENE 0.0 0.0
06:20 9.8 83.0 1010.8 0.0 ENE 3.2 0.0
06:25 9.9 83.0 1010.8 0.0 E 3.2 0.0
06:30 10.1 83.0 1010.8 0.0 E 1.6 0.0
06:35 10.3 82.0 1010.7 0.0 E 0.0 0.0
06:40 10.7 83.0 1010.8 1.6 E 3.2 0.0
06:45 10.9 83.0 1010.7 0.0 E 3.2 0.0
06:50 11.0 83.0 1010.7 0.0 E 1.6 0.0
06:55 11.0 83.0 1011.1 0.0 E 0.0 0.0
07:00 11.1 83.0 1011.0 0.0 SE 0.0 0.0
07:05 11.1 83.0 1011.1 0.0 SE 0.0 0.0
07:10 11.1 83.0 1011.0 0.0 SE 0.0 0.0
07:15 10.9 83.0 1011.0 1.6 SE 3.2 0.0
07:20 10.8 82.0 1010.9 0.0 SE 6.4 0.0
07:25 10.8 82.0 1010.9 1.6 SE 6.4 0.0
07:30 10.8 81.0 1010.9 0.0 ESE 6.4 0.0
07:35 10.8 81.0 1011.0 0.0 ESE 8.0 0.0
07:40 10.9 81.0 1010.7 0.0 ESE 8.0 0.0
07:45 11.0 82.0 1010.9 0.0 ESE 0.0 0.0
07:50 11.2 83.0 1010.7 0.0 ESE 0.0 0.0
07:55 11.4 83.0 1010.6 0.0 ESE 1.6 0.0
08:00 11.7 83.0 1010.7 0.0 SSE 3.2 0.0
08:05 11.8 83.0 1010.8 4.8 SSE 4.8 0.0
08:10 12.1 83.0 1010.8 1.6 SSE 6.4 0.0
08:15 12.2 83.0 1010.7 3.2 SSE 6.4 0.0
08:20 12.2 82.0 1010.6 0.0 SE 8.0 0.0
08:25 12.4 83.0 1010.3 3.2 SE 8.0 0.0
08:30 12.4 83.0 1010.5 1.6 ESE 8.0 0.0
08:35 12.3 82.0 1010.2 0.0 ESE 8.0 0.0
08:40 12.3 82.0 1010.3 0.0 ESE 0.0 0.0
08:45 12.3 81.0 1010.5 3.2 ESE 4.8 0.0
08:50 12.3 81.0 1010.6 3.2 SE 9.7 0.0
08:55 12.2 81.0 1010.7 3.2 E 9.7 0.0
09:00 12.0 81.0 1010.7 3.2 E 11.3 0.0
09:05 11.8 80.0 1010.6 4.8 E 11.3 0.0
09:10 11.6 79.0 1010.7 3.2 ESE 9.7 0.0
09:15 11.5 78.0 1011.1 1.6 ESE 9.7 0.0
09:20 11.4 78.0 1010.9 3.2 E 9.7 0.0
09:25 11.3 78.0 1010.8 3.2 E 9.7 0.0
09:30 11.3 77.0 1011.0 1.6 SE 9.7 0.0
09:35 11.4 76.0 1011.0 4.8 E 12.9 0.0
09:40 11.3 76.0 1011.1 6.4 E 12.9 0.0
09:45 11.1 76.0 1011.1 1.6 SE 11.3 0.0
09:50 11.2 76.0 1011.3 4.8 E 11.3 0.0
09:55 11.2 77.0 1011.2 3.2 ENE 11.3 0.0
10:00 11.2 77.0 1011.2 0.0 E 11.3 0.0
10:05 11.4 77.0 1011.1 0.0 E 8.0 0.0
10:10 11.7 78.0 1011.1 3.2 E 8.0 0.0
10:15 11.9 79.0 1010.9 0.0 E 9.7 0.0
10:20 12.1 81.0 1011.2 1.6 SE 11.3 0.0
10:25 12.1 81.0 1011.3 1.6 ESE 11.3 0.0
10:30 12.1 81.0 1011.2 8.0 E 11.3 0.0
10:35 12.1 81.0 1011.1 11.3 E 12.9 0.0
10:40 12.0 81.0 1011.1 0.0 E 12.9 0.0
10:45 11.9 81.0 1011.1 3.2 E 12.9 0.0
10:50 11.9 80.0 1011.1 3.2 ESE 11.3 0.0
10:55 11.9 80.0 1011.1 8.0 E 12.9 0.0
11:00 11.9 79.0 1011.0 8.0 ESE 12.9 0.0
11:05 11.8 78.0 1011.0 3.2 ESE 11.3 0.0
11:10 11.8 78.0 1010.9 6.4 ESE 11.3 0.0
11:15 11.6 78.0 1010.7 0.0 E 11.3 0.0
11:20 11.7 77.0 1010.7 6.4 E 12.9 0.0
11:25 11.7 77.0 1010.8 12.9 ENE 12.9 0.0
11:30 11.7 77.0 1010.6 9.7 S 14.5 0.0
11:35 11.8 76.0 1010.5 4.8 SE 12.9 0.0
11:40 11.9 77.0 1010.6 6.4 SE 9.7 0.0
11:45 11.9 77.0 1010.6 0.0 SE 9.7 0.0
11:50 12.2 78.0 1010.7 3.2 ESE 9.7 0.0
11:55 12.4 79.0 1010.5 3.2 E 14.5 0.0
12:00 12.5 80.0 1010.3 6.4 ESE 14.5 0.0
12:05 12.7 81.0 1010.3 6.4 E 11.3 0.0
12:10 12.8 81.0 1010.3 9.7 E 11.3 0.0
12:15 12.8 81.0 1010.2 1.6 SE 16.1 0.0
12:20 12.9 82.0 1010.1 11.3 ESE 12.9 0.0
12:25 13.1 82.0 1010.0 9.7 ENE 12.9 0.0
12:30 13.1 82.0 1010.1 6.4 E 11.3 0.0
12:35 12.8 83.0 1009.9 3.2 SSE 11.3 0.0
12:40 12.8 82.0 1010.0 8.0 E 14.5 0.0
12:45 12.7 82.0 1009.9 3.2 ENE 14.5 0.0
12:50 12.7 83.0 1009.9 4.8 ESE 14.5 0.0
12:55 12.6 82.0 1009.9 8.0 ESE 14.5 0.0
13:00 12.7 83.0 1009.8 8.0 ENE 14.5 0.0
13:05 12.8 83.0 1009.7 14.5 E 14.5 0.0
13:10 12.8 83.0 1009.8 3.2 SE 14.5 0.0
13:15 12.8 83.0 1009.9 9.7 E 14.5 0.0
13:20 12.8 83.0 1009.8 8.0 ESE 14.5 0.0
13:25 12.7 83.0 1009.7 0.0 ESE 12.9 0.0
13:30 12.6 83.0 1009.8 9.7 E 12.9 0.0
13:35 12.4 83.0 1009.7 9.7 ENE 12.9 0.0
13:40 12.3 83.0 1009.7 11.3 E 14.5 0.0
13:45 12.1 82.0 1009.6 8.0 ESE 14.5 0.0
13:50 12.1 81.0 1009.3 6.4 E 14.5 0.0
13:55 12.1 82.0 1009.4 9.7 E 12.9 0.0
14:00 12.1 81.0 1009.5 8.0 E 14.5 0.0
14:05 12.0 81.0 1009.3 8.0 E 12.9 0.0
14:10 12.0 80.0 1009.4 0.0 ESE 12.9 0.0
14:15 12.0 81.0 1009.4 3.2 S 16.1 0.0
14:20 12.0 80.0 1009.2 6.4 E 16.1 0.0
14:25 12.1 80.0 1009.2 8.0 ESE 11.3 0.0
14:30 12.1 80.0 1009.2 1.6 E 12.9 0.0
14:35 12.1 80.0 1009.0 6.4 E 12.9 0.0
14:40 12.4 79.0 1008.9 6.4 ESE 9.7 0.0
14:45 12.6 80.0 1008.7 1.6 ESE 9.7 0.0
14:50 12.9 81.0 1008.7 1.6 ESE 8.0 0.0
14:55 12.9 82.0 1008.7 3.2 ESE 11.3 0.0
15:00 12.8 82.0 1008.7 6.4 ENE 11.3 0.0
15:05 12.6 82.0 1008.7 9.7 E 16.1 0.0
15:10 12.4 82.0 1008.7 3.2 E 16.1 0.0
15:15 12.3 81.0 1008.5 3.2 SE 12.9 0.0
15:20 12.2 81.0 1008.4 8.0 E 14.5 0.0
15:25 12.1 82.0 1008.5 3.2 E 14.5 0.0
15:30 12.1 82.0 1008.5 6.4 E 11.3 0.0
15:35 12.0 81.0 1008.6 1.6 E 11.3 0.0
15:40 11.9 81.0 1008.7 1.6 ESE 12.9 0.0
15:45 11.8 79.0 1008.6 4.8 ENE 14.5 0.0
15:50 11.7 79.0 1008.6 8.0 ESE 14.5 0.0
15:55 11.6 77.0 1008.5 1.6 E 11.3 0.0
16:00 11.5 76.0 1008.7 0.0 ESE 9.7 0.0
16:05 11.4 74.0 1008.6 3.2 ESE 9.7 0.0
16:10 11.4 73.0 1008.7 0.0 E 9.7 0.0
16:15 11.3 73.0 1008.8 6.4 ENE 16.1 0.0
16:20 11.1 72.0 1008.7 4.8 E 16.1 0.3
16:25 10.9 71.0 1008.8 1.6 E 11.3 0.0
16:30 10.7 71.0 1009.0 3.2 ESE 11.3 0.0
16:35 10.5 70.0 1008.8 4.8 SE 12.9 0.3
16:40 10.4 70.0 1008.7 6.4 E 12.9 0.0
16:45 10.2 70.0 1008.7 4.8 SE 11.3 0.0
16:50 10.1 69.0 1008.7 6.4 E 12.9 0.0
16:55 9.9 69.0 1008.8 1.6 ESE 12.9 0.0
17:00 9.8 69.0 1008.8 8.0 E 11.3 0.0
17:05 9.8 69.0 1008.6 1.6 E 11.3 0.0
17:10 9.7 69.0 1008.6 1.6 E 9.7 0.0
17:15 9.7 69.0 1008.5 3.2 E 4.8 0.0
17:20 9.7 69.0 1008.5 8.0 E 8.0 0.0
17:25 9.6 69.0 1008.4 1.6 ESE 11.3 0.0
17:30 9.6 68.0 1008.4 3.2 E 11.3 0.0
17:35 9.6 68.0 1008.3 3.2 E 9.7 0.0
17:40 9.6 68.0 1008.5 1.6 SE 11.3 0.0
17:45 9.6 68.0 1008.4 4.8 SE 11.3 0.0
17:50 9.6 68.0 1008.4 6.4 ESE 8.0 0.0
17:55 9.6 68.0 1008.4 9.7 ESE 9.7 0.0
18:00 9.6 68.0 1008.4 1.6 E 9.7 0.0
18:05 9.4 68.0 1008.4 0.0 E 9.7 0.0
18:10 9.4 68.0 1008.4 3.2 E 9.7 0.0
18:15 9.3 68.0 1008.4 1.6 E 9.7 0.0
18:20 9.2 68.0 1008.4 1.6 E 9.7 0.0
18:25 9.2 68.0 1008.6 1.6 E 9.7 0.0
18:30 9.2 68.0 1008.5 0.0 E 8.0 0.0
18:35 9.1 68.0 1008.6 0.0 E 6.4 0.0
18:40 8.9 68.0 1008.7 0.0 E 3.2 0.0
18:45 8.9 68.0 1008.7 0.0 E 0.0 0.0
18:50 8.9 68.0 1008.6 0.0 E 0.0 0.0
18:55 8.9 68.0 1008.6 0.0 E 0.0 0.0
19:00 8.9 68.0 1008.6 0.0 E 0.0 0.0
19:05 8.9 68.0 1008.6 0.0 E 0.0 0.0
19:10 8.9 68.0 1008.7 0.0 E 0.0 0.0
19:15 8.9 68.0 1008.8 0.0 E 0.0 0.0
19:20 9.0 68.0 1008.8 0.0 E 6.4 0.0
19:25 9.1 67.0 1008.9 0.0 E 6.4 0.0
19:30 9.1 67.0 1008.9 0.0 E 6.4 0.0
19:35 9.1 67.0 1008.9 0.0 E 1.6 0.0
19:40 9.2 67.0 1009.1 0.0 E 0.0 0.0
19:45 9.2 67.0 1009.1 0.0 E 6.4 0.0
19:50 9.2 67.0 1009.2 1.6 E 6.4 0.0
19:55 9.2 67.0 1009.2 1.6 E 6.4 0.0
20:00 9.2 67.0 1009.2 4.8 E 6.4 0.0
20:05 9.2 67.0 1009.2 4.8 E 8.0 0.0
20:10 9.2 67.0 1009.2 0.0 E 8.0 0.0
20:15 9.2 67.0 1009.3 1.6 E 8.0 0.0
20:20 9.2 67.0 1009.3 0.0 E 3.2 0.0
20:25 9.3 67.0 1009.3 0.0 E 0.0 0.0
20:30 9.3 67.0 1009.4 0.0 E 0.0 0.0
20:35 9.4 67.0 1009.4 0.0 E 0.0 0.0
20:40 9.6 67.0 1009.4 0.0 E 6.4 0.0
20:45 9.6 67.0 1009.4 0.0 E 6.4 0.0
Máxima 13.1 86.0 1012.8 14.5 E 16.1 0.3
Mínima 8.7 67.0 1008.3
Total 0.6